Other Public Products
Issued by NWS Grand Forks, ND

Home | Current Version | Previous Version | Text Only | Print | Product List | Glossary Off
Versions: 1 2 3 4 5 6 7 8 9 10 11 12 13 14 15 16 17 18 19 20 21 22 23 24 25 26 27 28 29 30 31 32 33 34 35 36 37 38 39 40 41 42 43 44 45 46 47 48 49 50

000
FPUS83 KFGF 222210
OPUFGF
PRAIRIE TO PINES WEATHER ROUNDUP
NATIONAL WEATHER SERVICE EASTERN NORTH DAKOTA/GRAND FORKS ND
500 PM CDT FRI SEP 22 2017

 **SATELLITE DATA USED TO AUGMENT SKY COVER AT AUTOMATED STATIONS**
 *****  WEATHER ACROSS EASTERN NORTH DAKOTA  *****

CITY           SKY/WX    TMP DP  RH WIND       PRES   REMARKS
GRAND FORKS    PTSUNNY   75  63  66 NE13      29.65F
GRAND FORKS AF CLOUDY    70  59  67 N13       29.68F
GRAND CITY NWS NOT AVBL
BUXTON         NOT AVBL
DEVILS LAKE    CLOUDY    55  50  83 N20G25    29.78F
FARGO          PTSUNNY   86  72  62 S15G21    29.62S HX  92
WAHPETON ARPT  MOCLDY    88  64  45 S20G25    29.64R
$$

 *****  WEATHER ACROSS CENTRAL AND WESTERN NORTH DAKOTA  *****

CITY           SKY/WX    TMP DP  RH WIND       PRES   REMARKS
JAMESTOWN      CLOUDY    64  55  72 N16       29.69S
BISMARCK       CLOUDY    52  45  77 N14       29.85R
MINOT          CLOUDY    50  43  77 NW18G29   29.91R
MINOT AFB      CLOUDY    49  42  78 N16G26    29.91R
GARRISON         N/A     48  44  86 N16G28    29.91R
WILLISTON      CLOUDY    48  40  73 N17       30.01R
DICKINSON      CLOUDY    49  40  71 NW20      29.92R
HETTINGER      CLOUDY    50  38  63 N20G29    29.90F
$$

 *****  OTHER OBSERVATIONS NORTHEAST NORTH DAKOTA  *****

CITY           SKY/WX    TMP DP  RH WIND       PRES   REMARKS
WALHALLA       LGT RAIN N/A N/A N/A N16G26    29.81R
LANGDON        CLOUDY    54  54 100 N21G26    29.81R
CAVALIER       CLOUDY    61  52  72 N16G23    29.77R
GRAFTON        CLOUDY    70  57  64 N8G16     29.73R
CANDO          CLOUDY    52  52 100 N20G30    29.82R
FORT TOTTEN      N/A     57  49  75 N7        29.95S
ROLLA          CLOUDY    48  48 100 N25G32    29.84R
RUGBY          CLOUDY    50  48  93 N9        29.86R
 ***** THE ABOVE OBSERVATIONS ARE NON NWS ARE NOT QUALITY
        CONTROLLED AND MAY MIS-REPORT RAIN FOR SNOW...
$$

 *****  OTHER OBSERVATIONS SOUTHEAST NORTH DAKOTA *****

CITY           SKY/WX    TMP DP  RH WIND       PRES   REMARKS
COOPERSTOWN    CLOUDY    64  55  72 N13       29.70S
VALLEY CITY    MOCLDY    70  63  78 NE13      29.68S
OAKES          NOT AVBL
GWINNER        MOCLDY    86  70  58 S10       29.62S HX  90
SHEYENNE NWR     N/A     88  72  58 S13       29.95S HX  94
BUFFALO        NOT AVBL
WYNDMERE       NOT AVBL
 ***** THE ABOVE OBSERVATIONS ARE NON NWS ARE NOT QUALITY
       CONTROLLED AND MAY MIS-REPORT RAIN FOR SNOW...
$$

  *****  WEATHER ACROSS NORTHERN MINNESOTA  *****

CITY           SKY/WX    TMP DP  RH WIND       PRES   REMARKS
FLAG ISLAND    FAIR      72  57  60 NE9       29.76F
WARROAD        CLOUDY    68  63  83 NE10      29.76F
ROSEAU         PTSUNNY   70  63  78 NE14      29.74F
HALLOCK          N/A     72  55  56 E18G26    29.69F
THF RVR FALLS  CLOUDY    75  67  76 NE12      29.69F
HALSTAD        NOT AVBL
FOSSTON        FAIR      81  70  69 SE8       29.69S
BAUDETTE       CLOUDY    72  66  81 NE9       29.75R
WASKISH        CLOUDY    75  68  78 S5        29.75R
CROOKSTON      FAIR      79  66  65 NE8       29.66F
$$
  *****  WEATHER ACROSS CENTRAL AND WEST MINNESOTA  *****

CITY           SKY/WX    TMP DP  RH WIND       PRES   REMARKS
BEMIDJI        PTSUNNY   75  70  84 SE9       29.72F
PARK RAPIDS    CLOUDY    83  73  72 SE12      29.72F
WADENA         FAIR      82  72  69 SE15G21   29.71F
DETROIT LAKES  FAIR      82  70  65 S15G26    29.69F
MOORHEAD       FAIR      86  72  62 SE15      29.64S HX  92
FERGUS FALLS   FAIR      86  72  62 SE14G21   29.64F HX  92
ELBOW LAKE     FAIR      86  73  64 S16G25    29.67F HAZE    HX  92
MORRIS MN      FAIR      91  70  49 S20G26    29.66S HX  97
STAPLES        FAIR      82  72  69 S15G21    29.72F
WHEATON        FAIR      90  66  45 S15G23    29.65S HX  92
$$
  *****  WEATHER ELSEWHERE ACROSS MINNESOTA  *****

CITY           SKY/WX    TMP DP  RH WIND       PRES   REMARKS
DULUTH         FAIR      77  71  82 S8        29.83S
INTRNTL FALLS  FAIR      76  67  73 E9        29.76F
ELY            FAIR      79  64  61 S9        29.82F
CLOQUET        FAIR      81  70  69 SE9G16    29.81F
BRAINERD       FAIR      84  72  67 S14G23    29.74F
HIBBING        FAIR      76  70  82 S10       29.78F
ALEXANDRIA     NOT AVBL
SAINT CLOUD    FAIR      89  74  60 SE15      29.74F HX  98
MINNEAPOLIS    FAIR      94  70  45 S20       29.79S HX 100
$$

  *****  WEATHER ACROSS SOUTH DAKOTA  *****

CITY           SKY/WX    TMP DP  RH WIND       PRES   REMARKS
SIOUX FALLS    FAIR      91  71  51 S20G32    29.71S HX  97
BROOKINGS      FAIR      89  71  55 S24G31    29.70S HX  95
WATERTOWN      FAIR      89  68  49 S17G32    29.67R HX  93
HURON          FAIR      84  57  39 W17       29.68R
SISSETON         N/A     90  71  53 S14       29.63R HX  96
ABERDEEN       FAIR      83  56  39 SW20G30   29.64R
MITCHELL       FAIR      83  57  41 W13       29.69R
PIERRE         CLOUDY    65  52  62 NW17      29.79R
MOBRIDGE       CLOUDY    57  49  74 NW18G25   29.78R
RAPID CITY     SUNNY     61  37  41 N28G39    29.86S
$$

  *****  SOME WEATHER IN NEARBY STATES *****

CITY           SKY/WX    TMP DP  RH WIND       PRES   REMARKS
GLASGOW MT     CLOUDY    47  39  74 N6        30.04S
GREAT FALLS MT LGT RAIN  37  34  89 NE9       30.06S
CHEYENNE WY    FAIR      59  34  39 NE17G24   29.92R
SCOTTSBLUFF NE FAIR      74  40  29 N9        29.82S
OMAHA NE       FAIR      93  69  45 S25G33    29.81S HX  98
DES MOINES IA  FAIR      91  68  46 S16G24    29.89S HX  95
DAVENPORT IA   FAIR      90  65  43 S12       30.00S HX  92
CHICAGO IL     FAIR      93  63  36 S9        30.01S HX  94
EAU CLAIRE WI  FAIR      91  65  41 S13G24    29.87S HX  93
LA CROSSE WI   FAIR      94  67  41 S18G29    29.89R HX  97
$$

  *****  SOME NATIONAL WEATHER *****

CITY           SKY/WX    TMP DP  RH WIND       PRES   REMARKS
LA GUARDIA NY  FAIR      79  58  48 N14       29.93S
RALEIGH NC     FAIR      86  61  42 NE5       29.99F
ATLANTA GA     FAIR      84  65  52 E8        30.00S
NEW ORLEANS LA NOT AVBL
OKLAHOMA CITY  FAIR      88  67  49 S15       29.91F HX  91
ALBUQUERQUE NM PTSUNNY   83  37  19 S24G30    29.86F
SALT LAKE CITY CLOUDY    52  40  63 NW12      29.91S
LOS ANGELES CA FAIR      71  59  65 W15       29.83F
BOISE ID       CLOUDY    49  41  74 NE5       29.97S
SEATTLE WA     FAIR      65  47  52 CALM      30.04F
$$

*** WEATHER ACROSS MANITOBA...SASKATCHEWAN AND ONTARIO ***
                ***ONTARIO***

CITY           SKY/WX    TMP DP  RH WIND       PRES   REMARKS
GERALDTON      PTSUNNY   70  66  88 VRB2      29.93R FOG
THUNDER BAY    PTSUNNY   73  64  73 E8        29.89S
SIOUX LOOKOUT  PTSUNNY   75  63  64 E5        29.84F
TORONTO        MOSUNNY   77  52  41 SE7       30.09S
BIG TROUT LK   SUNNY     64  45  48 NW9       29.92R
PICKLE LAKE    MOSUNNY   72  48  43 CALM      29.89S
DRYDEN         SUNNY     75  63  64 E8        29.83S
KENORA         PTSUNNY   70  55  60 NE12G17   29.80F
$$
                *** MANITOBA***

CITY           SKY/WX    TMP DP  RH WIND       PRES   REMARKS
BRANDON        LGT RAIN  50  46  87 NE12      29.94S
DAUPHIN        LGT RAIN  48  46  93 NE12G17   29.97F
ISLAND LAKE    NOT AVBL
PILOT MOUND      N/A     50  48  93 N17G25      N/A
THE PAS        CLOUDY    50  39  66 N3        30.05R
THOMPSON       CLOUDY    48  41  76 N10       30.05R
WINNIPEG       LGT RAIN  59  48  67 N26G33    29.76F
LYNN LAKE      CLOUDY    45  37  76 NE13G18   30.09S
CHURCHILL      CLOUDY    43  37  81 N22       30.08R
GILLAM         DRIZZLE   48  45  87 NE9G23    30.01R
$$
                ***SASKATCHEWAN***

CITY           SKY/WX    TMP DP  RH WIND       PRES   REMARKS
ESTEVAN        LGT RAIN  46  45  93 N12G18    30.00F
KINDERSLEY     CLOUDY    45  37  76 E9        30.06S
LLOYDMINSTER   CLOUDY    45  37  76 NE3       30.08S
PRINCE ALBERT  CLOUDY    48  37  66 N12       30.08S
REGINA         CLOUDY    46  39  76 NW7       30.04S
YORKTON        CLOUDY    48  41  76 N13       30.00S



USA.gov is the U.S. government's official web portal to all federal, state and local government web resources and services.